OBJECT C, 60747

Orbit data source: Space-Track

You're viewing an uncataloged RSO

Recently launched and/or uncataloged RSOs may have evolving metadata. Metadata may include the following, but is not limited to: Owner, Manufacturer, Bus, Motor, and Mission.

OBJECT C, 60747 is a Chinese satellite in SSO that was launched on Thu, 29 Aug 2024 UTC via a GUSHENXING 1 launch vehicle from the Yellow Sea Launch Area, China (YSLA). Unknown objects in Earth's orbit typically refer to objects detected orbiting the Earth but have not yet been identified or cataloged. These objects could be anything from previously untracked satellites, spent rocket stages, debris from satellite collisions, or even natural meteoroids temporarily captured by Earth's gravity.

Loading next visibility...
Identifier
60747, 2024-153C
Orbit
SSO
Country
Flag of CNCN / PRC
Related business
None
Manufacturer
Unknown
Mission
Operational Commercial Meteo Radio Occ.
Bus & Motor
Unknown
Mass
Unknown
Launch date (UTC)
2024-08-29 (2 years ago)
Launch vehicle
GUSHENXING 1
Launch site
Yellow Sea Launch Area, China (YSLA)
Object type
Unknown
Shape & HBR
Box + 1 Pan, 2.5 m
Radar Cross Section
5.339 m², Medium (>0.1 m² and < 1m²)

Expand to show TLE details & history
Last TLE update: 5 hours ago

TLE from 5 hours ago
0 OBJECT C
1 60747U 24153C   26256.19819568  .00026895  00000-0  55827-3 0  9997
2 60747  97.6882  43.4620 0007780 188.7617 171.3496 15.45645765113728
Epoch: 2026-09-13T04:45Z
TLE epoch observation values (Epoch: 2026-09-13T04:45:24.106Z)
Latitude
-0.00011°
Longitude
-20.08472°
Altitude
437.835 km
Speed
7.646 km/s
True Right ascension
02h 53m 50s
True Declination
0° 00' 00"
Sunlit
Object was in full shadow at epoch
Visualization orbit readout
Latitude
Unknown
Longitude
Unknown
Altitude
Unknown
Speed
Unknown
Apparent Right ascension
Unknown
Apparent Declination
Unknown
Sunlit
N/A
Visualization observer readout
Local Sidereal Time
02:28:08
Azimuth
Unknown
Elevation
Unknown
Doppler factor
Unknown
Orbital elements
Apogee altitude
431.719 km
Perigee altitude
421.131 km
Semi-major axis
6,804.562 km
Eccentricity
0.00078
Inclination
97.6882°
RAAN
43.462°
Arg. of periapsis
188.7617°
True anomaly
171.363°
Mean anomaly
171.3496°
Eccentric anomaly
171.3563°
Mean motion
3.86672 °/min
Orbital period
93.1 mins
BSTAR
0.00055827
Loading maneuver chart data...
Computing Atmospheric mass density...
Loading historical data...
Loading historical data...
Loading historical data...
Loading historical data...
Loading historical data...
Loading historical data...
Loading historical data...

Documentation

Showing up to 5 results
|